This demonstration page uses our WeatherBlox Daily Observations layout. Learn more.

Left ArrowRight Arrow

Hourly Observations for January 29, 2022

Temp ( °F °C ) Dew Point ( °F °C ) Humidity (%) Winds ( mph kmh ) Pressure ( in mb ) Visibility ( mi km ) Precip ( " mm )
12:15 am 00:15 Clear 18 -7.6 10 -12 71 71 W 7 11 30.31 1026 10 16 0.00 0.00
12:35 am 00:35 Clear 20 -6.6 13 -10.7 73 73 WNW 9 15 30.30 1026 10 16 0.00 0.00
12:55 am 00:55 Clear 20 -6.7 12 -11.1 71 71 WNW 7 11 30.30 1026 10 16 0.00 0.00
1:15 am 01:15 Clear 20 -6.7 12 -11 72 72 NW 5 7 30.30 1026 10 16 0.00 0.00
1:35 am 01:35 Clear 19 -7 12 -11.3 72 72 WNW 8 13 30.28 1025 10 16 0.00 0.00
1:55 am 01:55 Clear 16 -8.8 10 -12.1 77 77 NW 6 9 30.30 1026 10 16 0.00 0.00
2:15 am 02:15 Clear 18 -8 11 -11.6 76 76 NW 6 9 30.28 1025 10 16 0.00 0.00
2:35 am 02:35 Clear 17 -8.1 11 -11.6 76 76 NW 6 9 30.28 1025 10 16 0.00 0.00
2:55 am 02:55 Clear 18 -8 11 -11.6 76 76 NW 7 11 30.28 1025 10 16 0.00 0.00
3:15 am 03:15 Clear 17 -8.3 12 -11.3 79 79 WNW 10 17 30.27 1025 10 16 0.00 0.00
3:35 am 03:35 Clear 20 -6.4 14 -10 76 76 W 9 15 30.24 1024 10 16 0.00 0.00
3:55 am 03:55 Clear 22 -5.7 15 -9.5 75 75 WNW 12 19 30.23 1024 10 16 0.00 0.00
4:15 am 04:15 Clear 22 -5.5 15 -9.2 75 75 NW 7 11 30.22 1023 10 16 0.00 0.00
4:35 am 04:35 Clear 21 -6.2 15 -9.7 77 77 NNW 7 11 30.23 1024 10 16 0.00 0.00
4:55 am 04:55 Clear 21 -6.2 15 -9.7 77 77 NW 6 9 30.23 1024 10 16 0.00 0.00
5:15 am 05:15 Clear 24 -4.7 17 -8.6 74 74 NW 8 13 30.21 1023 10 16 0.00 0.00
5:35 am 05:35 Clear 27 -2.6 18 -8 67 67 WNW 10 17 30.19 1022 10 16 0.00 0.00
5:55 am 05:55 Clear 25 -4 17 -8.6 71 71 WNW 10 17 30.21 1023 10 16 0.00 0.00
6:15 am 06:15 Clear 24 -4.3 16 -8.7 72 72 WNW 13 20 30.21 1023 10 16 0.00 0.00
6:35 am 06:35 Clear 25 -4 16 -8.7 70 70 WNW 12 19 30.21 1023 10 16 0.00 0.00
6:55 am 06:55 Clear 24 -4.3 16 -9 70 70 WNW 12 19 30.21 1023 10 16 0.00 0.00
7:15 am 07:15 Clear 24 -4.3 16 -9 70 70 WNW 13 20 30.22 1023 10 16 0.00 0.00
7:35 am 07:35 Clear 25 -4.1 16 -9.1 69 69 WNW 12 19 30.22 1023 10 16 0.00 0.00
7:55 am 07:55 Sunny 24 -4.5 15 -9.2 70 70 WNW 10 17 30.22 1023 10 16 0.00 0.00
8:15 am 08:15 Sunny 24 -4.4 15 -9.2 70 70 WNW 13 20 30.22 1023 10 16 0.00 0.00
8:35 am 08:35 Sunny 26 -3.2 16 -9 65 65 WNW 15 24 30.21 1023 10 16 0.00 0.00
8:55 am 08:55 Sunny 29 -1.5 17 -8.6 59 59 WNW 15 24 30.20 1023 10 16 0.00 0.00
9:15 am 09:15 Sunny 31 -0.3 17 -8.5 54 54 WNW 15 24 30.19 1022 10 16 0.00 0.00
9:35 am 09:35 Sunny 34 1.1 17 -8.2 50 50 WNW 15 24 30.18 1022 10 16 0.00 0.00
9:55 am 09:55 Sunny 36 2.3 17 -8.2 46 46 WNW 17 28 30.16 1021 10 16 0.00 0.00
10:15 am 10:15 Sunny 39 3.7 17 -8.4 41 41 NW 17 28 30.15 1021 10 16 0.00 0.00
10:35 am 10:35 Sunny 41 5 16 -8.7 37 37 WNW 21 33 30.13 1020 10 16 0.00 0.00
10:55 am 10:55 Sunny 44 6.8 17 -8.3 33 33 WNW 20 31 30.11 1020 10 16 0.00 0.00
11:15 am 11:15 Sunny 46 8 17 -8.6 30 30 WNW 17 28 30.10 1019 10 16 0.00 0.00
11:35 am 11:35 Sunny 48 9.1 17 -8.6 28 28 WNW 16 26 30.08 1019 10 16 0.00 0.00
11:55 am 11:55 Sunny 50 10.2 17 -8.5 26 26 WNW 14 22 30.07 1018 10 16 0.00 0.00
12:15 pm 12:15 Sunny 51 10.8 17 -8.6 25 25 WNW 15 24 30.05 1018 10 16 0.00 0.00
12:35 pm 12:35 Sunny 53 11.7 16 -9.1 23 23 WNW 13 20 30.04 1017 10 16 0.00 0.00
12:55 pm 12:55 Sunny 56 13.1 15 -9.4 20 20 WNW 16 26 30.01 1016 10 16 0.00 0.00
1:15 pm 13:15 Sunny 57 13.8 15 -9.6 19 19 WNW 17 28 30.00 1016 10 16 0.00 0.00
1:35 pm 13:35 Sunny 58 14.2 13 -10.8 17 17 WNW 20 31 29.98 1015 10 16 0.00 0.00
1:55 pm 13:55 Sunny 58 14.6 13 -10.8 16 16 WNW 20 31 29.98 1015 10 16 0.00 0.00
2:15 pm 14:15 Sunny 59 15.1 11 -11.4 15 15 W 16 26 29.95 1014 10 16 0.00 0.00
2:35 pm 14:35 Sunny 61 16.2 6 -14.5 11 11 NW 21 33 29.95 1014 10 16 0.00 0.00
2:55 pm 14:55 Sunny 61 16 5 -14.9 11 11 NW 21 33 29.94 1014 10 16 0.00 0.00
3:15 pm 15:15 Sunny 61 16.3 4 -15.6 10 10 NNW 21 33 29.93 1014 10 16 0.00 0.00
3:35 pm 15:35 Sunny 60 15.7 4 -15.7 10 10 NW 22 35 29.94 1014 10 16 0.00 0.00
3:55 pm 15:55 Sunny 60 15.3 3 -15.9 10 10 NW 15 24 29.94 1014 10 16 0.00 0.00
4:15 pm 16:15 Sunny 59 15.2 4 -15.7 10 10 NW 14 22 29.94 1014 10 16 0.00 0.00
4:35 pm 16:35 Sunny 58 14.4 4 -15.4 11 11 NW 9 15 29.95 1014 10 16 0.00 0.00
4:55 pm 16:55 Sunny 56 13.3 5 -14.9 13 13 WNW 9 15 29.96 1015 10 16 0.00 0.00
5:15 pm 17:15 Sunny 52 10.9 6 -14.2 16 16 WNW 8 13 29.98 1015 10 16 0.00 0.00
5:35 pm 17:35 Sunny 47 8.4 7 -14 19 19 WNW 12 19 30.01 1016 10 16 0.00 0.00
5:55 pm 17:55 Clear 42 5.3 6 -14.6 22 22 WNW 9 15 30.05 1017 10 16 0.00 0.00
6:15 pm 18:15 Clear 41 5.1 5 -14.8 22 22 WNW 13 20 30.05 1018 10 16 0.00 0.00
6:35 pm 18:35 Clear 39 3.9 5 -15 24 24 WNW 12 19 30.07 1018 10 16 0.00 0.00
6:55 pm 18:55 Clear 36 2 4 -15.3 27 27 WNW 12 19 30.09 1019 10 16 0.00 0.00
7:15 pm 19:15 Clear 33 0.4 5 -15.2 30 30 WNW 10 17 30.11 1020 10 16 0.00 0.00
7:35 pm 19:35 Clear 29 -1.6 4 -15.7 34 34 WNW 9 15 30.13 1020 10 16 0.00 0.00
7:55 pm 19:55 Clear 30 -1.2 5 -14.9 35 35 WNW 9 15 30.13 1020 10 16 0.00 0.00
8:15 pm 20:15 Clear 28 -2 4 -15.3 36 36 NW 9 15 30.15 1021 10 16 0.00 0.00
8:35 pm 20:35 Clear 26 -3.4 2 -16.6 36 36 NNW 6 9 30.17 1022 10 16 0.00 0.00
8:55 pm 20:55 Clear 24 -4.7 3 -16 41 41 NNW 7 11 30.18 1022 10 16 0.00 0.00
9:15 pm 21:15 Clear 23 -5.2 3 -15.9 43 43 WNW 5 7 30.20 1023 10 16 0.00 0.00
9:35 pm 21:35 Clear 22 -5.5 5 -15.1 47 47 W 8 13 30.20 1023 10 16 0.00 0.00
9:55 pm 21:55 Clear 23 -5.1 5 -15.2 45 45 W 9 15 30.20 1023 10 16 0.00 0.00
10:15 pm 22:15 Clear 24 -4.2 5 -14.8 44 44 W 8 13 30.20 1023 10 16 0.00 0.00
10:35 pm 22:35 Clear 25 -4.1 6 -14.4 45 45 W 7 11 30.20 1023 10 16 0.00 0.00
10:55 pm 22:55 Clear 23 -5.1 6 -14.2 49 49 W 7 11 30.21 1023 10 16 0.00 0.00
11:15 pm 23:15 Clear 21 -6.1 8 -13.6 56 56 W 9 15 30.22 1023 10 16 0.00 0.00
11:35 pm 23:35 Clear 22 -5.4 8 -13.6 53 53 WNW 7 11 30.22 1023 10 16 0.00 0.00
11:55 pm 23:55 Clear 21 -6.1 8 -13.6 56 56 WNW 9 15 30.24 1024 10 16 0.00 0.00

Powered by AerisWeather